Погода в Ревде

Россия / Тюменская область     56°52′40″N   66°36′36″E
темп.,
°C
ветер,
м/с
пор.,
м/с
влажн.,
%
обл.,
%
осадки,
мм/ч
давл.,
гПа
погр.,
м
19 апреля, пн
пн1923:00−5ссв511430 0.0 10311311
02:00−5ссв37465 0.0 10321301
05:00−6с35492 0.0 1033952
08:00−4с4641100 0.0 10341529
11:00−1с5731100 0.0 10332149
14:00+1с4729100 0.0 10322408
17:00+1ссв4629100 0.0 10322231
20:00−3св37455 0.0 1033158
20 апреля, вт
вт2023:00−5всв24540 0.0 103494
02:00−5вюв11554 0.0 103417
05:00−5юз11535 0.0 103436
08:00−1з353614 0.0 1033562
11:00+3з463022 0.0 10311316
14:00+7з58295 0.0 10281744
17:00+8зсз58345 0.0 10261774
20:00+4з365521 0.0 1026110
21 апреля, ср
ср2123:00+2зсз312635 0.0 1025241
02:00+1зсз38755 0.0 1025166
05:000ссз25875 0.0 102787
08:00+4с36715 0.0 1029439
11:00+8с465586 0.0 10301393
14:00+8ссв455073 0.0 10311487
17:00+9ссв34446 0.0 10321472
20:00+5ссв22581 0.0 103429
22 апреля, чт
чт2223:00+3в22640 0.0 103621
02:00+1юв22680 0.0 103738
05:000ююв24740 0.0 103874
08:00+5ююв47555 0.0 1039389
11:00+9ююв454092 0.0 10391220
14:00+12ю56355 0.0 10381618
17:00+12ю5637100 0.0 10371593
20:00+8ююв41048100 0.0 1037287
23 апреля, пт
пт2323:00+7ююв51351100 0.0 1037432
02:00+6ююв41352100 0.0 1037410
05:00+4ююв41156100 0.0 1037325
08:00+7ю494927 0.0 1036360
11:00+13ю574118 0.0 1035952
14:00+15ююз573774 0.0 10342062
17:00+15ю5636100 0.0 10332176
20:00+11ююв41042100 0.0 1034446